TimeCST,TemperatureF,Dew PointF,Humidity,Sea Level PressureIn,VisibilityMPH,Wind Direction,Wind SpeedMPH,Gust SpeedMPH,PrecipitationIn,Events,Conditions,WindDirDegrees,DateUTC
12:54 AM,36.0,19.9,52,29.89,10.0,WSW,8.1,-,N/A,,Clear,240,2014-01-14 06:54:00
1:54 AM,37.0,19.0,48,29.88,10.0,WSW,9.2,-,N/A,,Clear,240,2014-01-14 07:54:00
2:54 AM,35.1,19.9,54,29.88,10.0,WSW,3.5,-,N/A,,Clear,240,2014-01-14 08:54:00
3:54 AM,35.1,21.0,57,29.89,10.0,West,3.5,-,N/A,,Clear,280,2014-01-14 09:54:00
4:54 AM,41.0,25.0,53,29.91,10.0,NW,9.2,-,N/A,,Overcast,310,2014-01-14 10:54:00
5:54 AM,45.0,27.0,49,29.93,10.0,NNW,9.2,-,N/A,,Mostly Cloudy,330,2014-01-14 11:54:00
6:54 AM,43.0,30.9,62,30.00,10.0,NW,8.1,-,N/A,,Overcast,320,2014-01-14 12:54:00
7:54 AM,45.0,32.0,60,30.04,10.0,NNW,10.4,-,0.00,,Overcast,340,2014-01-14 13:54:00
8:54 AM,45.0,30.9,58,30.10,10.0,NNW,13.8,-,N/A,,Clear,330,2014-01-14 14:54:00
9:54 AM,46.9,30.0,52,30.14,10.0,North,16.1,25.3,N/A,,Partly Cloudy,350,2014-01-14 15:54:00
10:54 AM,48.0,24.1,39,30.18,10.0,North,20.7,35.7,N/A,,Clear,360,2014-01-14 16:54:00
11:54 AM,46.0,21.0,37,30.20,10.0,North,20.7,28.8,N/A,,Clear,360,2014-01-14 17:54:00
12:54 PM,46.0,21.0,37,30.20,10.0,NNW,21.9,29.9,N/A,,Clear,340,2014-01-14 18:54:00
1:54 PM,46.9,21.9,37,30.22,10.0,NNW,13.8,25.3,N/A,,Clear,340,2014-01-14 19:54:00
2:54 PM,46.9,10.9,23,30.23,10.0,NNW,18.4,33.4,N/A,,Clear,340,2014-01-14 20:54:00
3:54 PM,48.0,10.9,22,30.26,10.0,NNW,16.1,-,N/A,,Clear,330,2014-01-14 21:54:00
4:54 PM,45.0,12.9,27,30.27,10.0,NW,15.0,-,N/A,,Clear,320,2014-01-14 22:54:00
5:54 PM,35.1,12.9,40,30.30,10.0,NW,6.9,-,N/A,,Clear,320,2014-01-14 23:54:00
6:54 PM,33.1,14.0,46,30.31,10.0,WNW,4.6,-,N/A,,Clear,300,2014-01-15 00:54:00
7:54 PM,30.0,15.1,54,30.31,10.0,WNW,4.6,-,N/A,,Clear,300,2014-01-15 01:54:00
8:54 PM,28.0,17.1,63,30.32,10.0,West,5.8,-,N/A,,Clear,280,2014-01-15 02:54:00
9:54 PM,28.0,17.1,63,30.32,10.0,WNW,5.8,-,N/A,,Clear,300,2014-01-15 03:54:00
10:54 PM,26.1,18.0,71,30.33,10.0,NW,6.9,-,N/A,,Clear,310,2014-01-15 04:54:00
11:54 PM,25.0,19.0,78,30.34,10.0,NNW,8.1,-,N/A,,Clear,340,2014-01-15 05:54:00